Time,TemperatureF,DewpointF,PressureIn,WindDirection,WindDirectionDegrees,WindSpeedMPH,WindSpeedGustMPH,Humidity,HourlyPrecipIn,Conditions,Clouds,dailyrainin,SoftwareType,DateUTC
2013-01-31 00:01:00,0.0,-6.0,-100.00,NW,315,8.0,16.0,76,0.00,,,0.00,,2013-01-31 06:01:00,
2013-01-31 00:10:00,0.0,-6.0,-100.00,NW,315,8.0,16.0,76,0.00,,,0.00,,2013-01-31 06:10:00,
2013-01-31 08:02:00,-9.0,-15.0,-100.00,NW,310,7.0,11.0,74,0.00,,,0.00,,2013-01-31 14:02:00,
2013-01-31 08:11:00,-9.0,-15.0,-100.00,NW,305,7.0,13.0,74,0.00,,,0.00,,2013-01-31 14:11:00,
2013-01-31 08:22:00,-8.0,-15.0,-100.00,NW,315,7.0,12.0,74,0.00,,,0.00,,2013-01-31 14:22:00,
2013-01-31 08:32:00,-8.0,-15.0,-100.00,WNW,285,7.0,14.0,73,0.00,,,0.00,,2013-01-31 14:32:00,
2013-01-31 08:42:00,-8.0,-15.0,-100.00,NW,315,7.0,12.0,73,0.00,,,0.00,,2013-01-31 14:42:00,
2013-01-31 08:52:00,-7.0,-15.0,-100.00,WNW,295,7.0,12.0,73,0.00,,,0.00,,2013-01-31 14:52:00,
2013-01-31 09:03:00,-7.0,-15.0,-100.00,NW,310,6.0,13.0,72,0.00,,,0.00,,2013-01-31 15:03:00,
2013-01-31 09:12:00,-7.0,-15.0,-100.00,WNW,295,9.0,17.0,71,0.00,,,0.00,,2013-01-31 15:12:00,
2013-01-31 09:22:00,-7.0,-15.0,-100.00,WNW,295,6.0,14.0,71,0.00,,,0.00,,2013-01-31 15:22:00,
2013-01-31 09:32:00,-6.0,-13.0,-100.00,NW,315,9.0,17.0,70,0.00,,,0.00,,2013-01-31 15:32:00,
2013-01-31 09:42:00,-7.0,-15.0,-100.00,NW,305,7.0,16.0,69,0.00,,,0.00,,2013-01-31 15:42:00,
2013-01-31 09:51:00,-7.0,-15.0,-100.00,NW,315,10.0,16.0,68,0.00,,,0.00,,2013-01-31 15:51:00,
2013-01-31 10:03:00,-5.0,-13.0,-100.00,NW,310,9.0,18.0,68,0.00,,,0.00,,2013-01-31 16:03:00,
2013-01-31 10:12:00,-5.0,-13.0,-100.00,WNW,300,9.0,18.0,66,0.00,,,0.00,,2013-01-31 16:12:00,
2013-01-31 10:21:00,-5.0,-13.0,-100.00,NW,310,11.0,17.0,65,0.00,,,0.00,,2013-01-31 16:21:00,
2013-01-31 10:32:00,-5.0,-13.0,-100.00,WNW,290,8.0,19.0,65,0.00,,,0.00,,2013-01-31 16:32:00,
2013-01-31 10:42:00,-5.0,-13.0,-100.00,WNW,290,9.0,18.0,65,0.00,,,0.00,,2013-01-31 16:42:00,
2013-01-31 10:51:00,-5.0,-13.0,-100.00,WNW,290,12.0,20.0,65,0.00,,,0.00,,2013-01-31 16:51:00,
2013-01-31 11:02:00,-5.0,-13.0,-100.00,NW,315,11.0,20.0,66,0.00,,,0.00,,2013-01-31 17:02:00,
2013-01-31 11:12:00,-5.0,-13.0,-100.00,WNW,295,11.0,20.0,66,0.00,,,0.00,,2013-01-31 17:12:00,
2013-01-31 11:23:00,-4.0,-13.0,-100.00,NW,310,9.0,20.0,65,0.00,,,0.00,,2013-01-31 17:23:00,
2013-01-31 11:32:00,-3.0,-11.0,-100.00,West,280,7.0,17.0,64,0.00,,,0.00,,2013-01-31 17:32:00,
2013-01-31 11:43:00,-2.0,-11.0,-100.00,WNW,290,10.0,18.0,62,0.00,,,0.00,,2013-01-31 17:43:00,
2013-01-31 11:53:00,-2.0,-13.0,-100.00,NW,315,9.0,17.0,62,0.00,,,0.00,,2013-01-31 17:53:00,
2013-01-31 12:02:00,-3.0,-13.0,-100.00,WNW,295,11.0,19.0,61,0.00,,,0.00,,2013-01-31 18:02:00,
2013-01-31 12:12:00,-2.0,-13.0,-100.00,WNW,295,7.0,18.0,61,0.00,,,0.00,,2013-01-31 18:12:00,
2013-01-31 12:22:00,-1.0,-11.0,-100.00,WNW,295,12.0,21.0,60,0.00,,,0.00,,2013-01-31 18:22:00,
2013-01-31 12:32:00,-2.0,-13.0,-100.00,WNW,295,12.0,19.0,60,0.00,,,0.00,,2013-01-31 18:32:00,
2013-01-31 12:43:00,-1.0,-11.0,-100.00,NW,305,12.0,20.0,60,0.00,,,0.00,,2013-01-31 18:43:00,
2013-01-31 12:52:00,-1.0,-11.0,-100.00,NW,305,7.0,18.0,60,0.00,,,0.00,,2013-01-31 18:52:00,
2013-01-31 13:02:00,0.0,-11.0,-100.00,NW,305,11.0,17.0,59,0.00,,,0.00,,2013-01-31 19:02:00,
2013-01-31 13:12:00,0.0,-11.0,-100.00,NW,315,11.0,19.0,58,0.00,,,0.00,,2013-01-31 19:12:00,
2013-01-31 13:21:00,-1.0,-13.0,-100.00,WNW,300,11.0,19.0,58,0.00,,,0.00,,2013-01-31 19:21:00,
2013-01-31 13:32:00,0.0,-11.0,-100.00,WNW,300,10.0,17.0,58,0.00,,,0.00,,2013-01-31 19:32:00,
2013-01-31 13:42:00,-1.0,-13.0,-100.00,NW,310,10.0,17.0,57,0.00,,,0.00,,2013-01-31 19:42:00,
2013-01-31 13:51:00,-1.0,-11.0,-100.00,WNW,300,12.0,20.0,57,0.00,,,0.00,,2013-01-31 19:51:00,
2013-01-31 14:02:00,0.0,-11.0,-100.00,NW,310,10.0,19.0,56,0.00,,,0.00,,2013-01-31 20:02:00,
2013-01-31 14:11:00,0.0,-11.0,-100.00,WNW,290,9.0,19.0,56,0.00,,,0.00,,2013-01-31 20:11:00,
2013-01-31 14:21:00,1.0,-11.0,-100.00,WNW,300,10.0,17.0,55,0.00,,,0.00,,2013-01-31 20:21:00,
2013-01-31 14:31:00,1.0,-11.0,-100.00,WNW,295,11.0,17.0,55,0.00,,,0.00,,2013-01-31 20:31:00,
2013-01-31 14:42:00,1.0,-11.0,-100.00,WNW,290,7.0,17.0,55,0.00,,,0.00,,2013-01-31 20:42:00,
2013-01-31 14:52:00,0.0,-13.0,-100.00,West,280,11.0,17.0,55,0.00,,,0.00,,2013-01-31 20:52:00,
2013-01-31 15:02:00,0.0,-13.0,-100.00,NW,305,11.0,20.0,54,0.00,,,0.00,,2013-01-31 21:02:00,
2013-01-31 15:12:00,0.0,-13.0,-100.00,WNW,285,7.0,20.0,54,0.00,,,0.00,,2013-01-31 21:12:00,
2013-01-31 15:21:00,0.0,-13.0,-100.00,NW,305,9.0,16.0,54,0.00,,,0.00,,2013-01-31 21:21:00,
2013-01-31 15:32:00,0.0,-13.0,-100.00,WNW,300,9.0,14.0,54,0.00,,,0.00,,2013-01-31 21:32:00,
2013-01-31 15:42:00,0.0,-13.0,-100.00,West,270,9.0,16.0,54,0.00,,,0.00,,2013-01-31 21:42:00,
2013-01-31 15:52:00,-1.0,-13.0,-100.00,WNW,300,12.0,17.0,54,0.00,,,0.00,,2013-01-31 21:52:00,
2013-01-31 16:02:00,-2.0,-15.0,-100.00,West,270,14.0,22.0,55,0.00,,,0.00,,2013-01-31 22:02:00,
2013-01-31 16:11:00,-2.0,-15.0,-100.00,West,280,11.0,18.0,55,0.00,,,0.00,,2013-01-31 22:11:00,
2013-01-31 16:22:00,-3.0,-15.0,-100.00,West,270,7.0,17.0,56,0.00,,,0.00,,2013-01-31 22:22:00,
2013-01-31 16:32:00,-4.0,-15.0,-100.00,West,270,11.0,18.0,56,0.00,,,0.00,,2013-01-31 22:32:00,
2013-01-31 16:42:00,-5.0,-17.0,-100.00,West,275,13.0,19.0,57,0.00,,,0.00,,2013-01-31 22:42:00,
2013-01-31 16:51:00,-5.0,-17.0,-100.00,West,270,10.0,19.0,57,0.00,,,0.00,,2013-01-31 22:51:00,
2013-01-31 17:02:00,-6.0,-17.0,-100.00,West,280,7.0,16.0,58,0.00,,,0.00,,2013-01-31 23:02:00,
2013-01-31 17:12:00,-6.0,-17.0,-100.00,WNW,290,6.0,15.0,58,0.00,,,0.00,,2013-01-31 23:12:00,
2013-01-31 17:21:00,-7.0,-18.0,-100.00,West,275,9.0,16.0,60,0.00,,,0.00,,2013-01-31 23:21:00,
2013-01-31 17:31:00,-9.0,-18.0,-100.00,West,270,10.0,19.0,61,0.00,,,0.00,,2013-01-31 23:31:00,
2013-01-31 17:42:00,-9.0,-18.0,-100.00,West,275,6.0,12.0,61,0.00,,,0.00,,2013-01-31 23:42:00,
2013-01-31 17:52:00,-10.0,-18.0,-100.00,WNW,295,8.0,14.0,62,0.00,,,0.00,,2013-01-31 23:52:00,
2013-01-31 18:01:00,-10.0,-20.0,-100.00,West,280,9.0,17.0,62,0.00,,,0.00,,2013-02-01 00:01:00,
2013-01-31 18:11:00,-10.0,-20.0,-100.00,West,280,8.0,14.0,62,0.00,,,0.00,,2013-02-01 00:11:00,
2013-01-31 18:21:00,-11.0,-20.0,-100.00,West,280,7.0,18.0,62,0.00,,,0.00,,2013-02-01 00:21:00,
2013-01-31 18:31:00,-12.0,-20.0,-100.00,West,270,6.0,9.0,62,0.00,,,0.00,,2013-02-01 00:31:00,
2013-01-31 18:42:00,-12.0,-20.0,-100.00,WNW,285,8.0,14.0,63,0.00,,,0.00,,2013-02-01 00:42:00,
2013-01-31 18:51:00,-12.0,-22.0,-100.00,West,270,9.0,16.0,63,0.00,,,0.00,,2013-02-01 00:51:00,
2013-01-31 19:01:00,-13.0,-22.0,-100.00,WNW,295,7.0,14.0,63,0.00,,,0.00,,2013-02-01 01:01:00,
2013-01-31 19:11:00,-13.0,-22.0,-100.00,WNW,300,7.0,13.0,63,0.00,,,0.00,,2013-02-01 01:11:00,
2013-01-31 19:21:00,-14.0,-22.0,-100.00,West,280,7.0,10.0,64,0.00,,,0.00,,2013-02-01 01:21:00,
2013-01-31 19:32:00,-14.0,-22.0,-100.00,West,280,7.0,12.0,65,0.00,,,0.00,,2013-02-01 01:32:00,
2013-01-31 19:41:00,-14.0,-22.0,-100.00,WNW,285,7.0,13.0,65,0.00,,,0.00,,2013-02-01 01:41:00,
2013-01-31 19:51:00,-14.0,-22.0,-100.00,WNW,290,6.0,12.0,66,0.00,,,0.00,,2013-02-01 01:51:00,
2013-01-31 20:01:00,-14.0,-22.0,-100.00,WNW,290,6.0,12.0,66,0.00,,,0.00,,2013-02-01 02:01:00,
2013-01-31 20:11:00,-14.0,-22.0,-100.00,WNW,290,7.0,12.0,66,0.00,,,0.00,,2013-02-01 02:11:00,
2013-01-31 20:21:00,-15.0,-22.0,-100.00,WNW,290,7.0,11.0,66,0.00,,,0.00,,2013-02-01 02:21:00,
2013-01-31 20:31:00,-15.0,-24.0,-100.00,West,280,6.0,9.0,66,0.00,,,0.00,,2013-02-01 02:31:00,
2013-01-31 20:41:00,-15.0,-24.0,-100.00,WNW,285,6.0,12.0,67,0.00,,,0.00,,2013-02-01 02:41:00,
2013-01-31 20:52:00,-16.0,-24.0,-100.00,WNW,300,4.0,7.0,67,0.00,,,0.00,,2013-02-01 02:52:00,
2013-01-31 21:01:00,-16.0,-24.0,-100.00,West,265,4.0,7.0,67,0.00,,,0.00,,2013-02-01 03:01:00,
2013-01-31 21:12:00,-16.0,-24.0,-100.00,West,280,6.0,9.0,67,0.00,,,0.00,,2013-02-01 03:12:00,
2013-01-31 21:21:00,-16.0,-24.0,-100.00,West,275,5.0,9.0,68,0.00,,,0.00,,2013-02-01 03:21:00,
2013-01-31 21:32:00,-16.0,-24.0,-100.00,West,280,5.0,7.0,68,0.00,,,0.00,,2013-02-01 03:32:00,
2013-01-31 21:41:00,-16.0,-24.0,-100.00,West,280,4.0,9.0,69,0.00,,,0.00,,2013-02-01 03:41:00,
2013-01-31 21:51:00,-17.0,-24.0,-100.00,West,280,4.0,6.0,69,0.00,,,0.00,,2013-02-01 03:51:00,
2013-01-31 22:02:00,-17.0,-24.0,-100.00,WNW,290,4.0,7.0,69,0.00,,,0.00,,2013-02-01 04:02:00,
2013-01-31 22:11:00,-17.0,-24.0,-100.00,WNW,290,4.0,7.0,70,0.00,,,0.00,,2013-02-01 04:11:00,
2013-01-31 22:21:00,-18.0,-24.0,-100.00,WNW,300,3.0,6.0,70,0.00,,,0.00,,2013-02-01 04:21:00,
2013-01-31 22:31:00,-18.0,-24.0,-100.00,WNW,290,2.0,6.0,70,0.00,,,0.00,,2013-02-01 04:31:00,
2013-01-31 22:41:00,-18.0,-24.0,-100.00,WNW,290,4.0,7.0,71,0.00,,,0.00,,2013-02-01 04:41:00,
2013-01-31 22:51:00,-18.0,-26.0,-100.00,WNW,285,4.0,6.0,71,0.00,,,0.00,,2013-02-01 04:51:00,
2013-01-31 23:03:00,-19.0,-26.0,-100.00,WNW,290,4.0,6.0,71,0.00,,,0.00,,2013-02-01 05:03:00,
2013-01-31 23:11:00,-19.0,-26.0,-100.00,WNW,285,4.0,6.0,71,0.00,,,0.00,,2013-02-01 05:11:00,
2013-01-31 23:22:00,-19.0,-26.0,-100.00,WNW,290,3.0,6.0,72,0.00,,,0.00,,2013-02-01 05:22:00,
2013-01-31 23:32:00,-20.0,-26.0,-100.00,West,270,3.0,4.0,72,0.00,,,0.00,,2013-02-01 05:32:00,
2013-01-31 23:41:00,-21.0,-27.0,-100.00,WNW,285,2.0,3.0,73,0.00,,,0.00,,2013-02-01 05:41:00,
2013-01-31 23:52:00,-21.0,-27.0,-100.00,West,270,1.0,2.0,73,0.00,,,0.00,,2013-02-01 05:52:00,